Presure
396 388 346 252 218 191 257 185 248 222 222 230 217 208 202 187 185 179 180 176 167 138 123 166 149 140 142 113 104 112 115 88 85 113 94 104 146 98 82 83 93 87 113 101 115
449 380 377 255 239 221 191 231 195 226 219 218 197 200 183 202 193 186 182 180 159 155 155 154 140 167 108 106 103 129 151 136 114 87 90 86 88 98 108 94 85 74 80 89 87
368 407 366 318 247 237 229 184 260 182 202 228 215 210 209 224 207 198 194 181 180 159 120 152 162 133 166 147 137 141 107 118 147 139 84 87 106 82 94 93 93 87 93 86 87
331 395 351 338 257 248 200 210 236 166 174 184 230 205 201 207 224 210 205 199 175 180 181 126 133 157 131 121 141 130 131 130 127 127 138 107 87 89 136 92 95 74 96 83 92
345 309 304 301 289 252 237 197 202 189 183 181 240 225 208 202 203 213 209 211 173 156 177 180 161 132 165 129 137 158 154 183 134 166 161 150 134 139 100 97 75 150 117 91 94
306 287 296 308 305 272 237 231 163 207 174 189 180 195 223 211 204 209 209 202 212 213 206 177 177 170 173 161 128 132 137 145 105 132 116 118 111 140 148 167 124 110 130 126 135
279 278 277 276 283 284 297 260 230 200 208 185 172 198 246 223 207 192 208 200 193 201 205 204 212 188 177 175 160 129 126 135 194 157 157 127 132 138 135 138 129 114 144 146 122
270 273 264 278 266 276 323 193 146 164 228 231 197 191 194 262 225 206 193 189 189 185 199 211 206 204 225 190 185 185 175 118 186 182 132 125 183 133 132 132 135 139 146 149 145
279 295 258 272 270 282 253 313 241 219 188 203 191 205 187 263 248 236 230 204 193 206 206 211 202 202 204 219 222 208 214 230 210 227 213 133 168 202 163 176 165 194 132 135 191
282 247 197 276 279 301 290 218 260 159 206 204 198 193 192 180 180 256 242 230 215 204 214 216 204 214 212 214 218 229 215 149 221 223 223 226 226 229 232 175 240 237 117 201 145
286 277 257 283 279 286 290 294 317 209 197 213 218 198 201 211 194 243 268 263 251 214 233 216 199 199 206 209 214 224 219 215 226 227 232 235 237 235 240 236 233 238 138 147 92
197 269 287 265 283 258 283 287 275 169 244 225 198 210 211 213 206 210 194 190 193 202 261 257 238 202 205 216 217 215 223 220 215 217 220 224 184 194 234 237 153 280 280 225 255
260 291 222 170 206 264 246 277 276 316 308 143 232 194 201 202 212 212 202 205 235 266 259 252 227 222 212 221 218 217 218 224 226 229 250 269 275 271 76 266 287 301 294 228 279
311 280 253 237 175 223 250 199 228 252 296 298 293 213 212 219 218 212 220 232 251 257 250 249 245 225 226 217 224 227 241 272 263 255 246 249 259 291 288 280 227 284 98 300 296
279 328 254 238 295 304 272 236 275 232 237 268 288 247 229 231 226 223 224 226 235 239 245 249 256 258 260 264 263 251 235 235 243 250 264 279 275 245 255 306 294 286 275 278 281
292 305 277 269 274 255 235 211 237 273 289 219 229 202 223 215 231 236 230 243 238 241 236 235 235 229 234 236 241 249 259 270 279 249 251 252 269 297 281 285 286 277 273 265 156
279 220 225 261 320 318 290 321 252 231 260 238 251 218 234 226 228 231 241 246 252 252 255 268 249 252 265 264 274 247 259 255 282 301 298 282 281 267 278 279 278 278 270 271 267
204 145 285 281 203 210 220 257 244 316 348 349 350 353 353 348 342 339 335 336 334 341 320 320 298 329 326 323 318 314 302 292 284 290 277 267 266 269 258 256 244 255 247 252 258
185 194 190 146 157 256 290 274 200 201 202 216 229 234 230 235 232 237 238 245 312 310 316 312 315 307 303 294 297 295 287 275 271 289 277 273 268 269 255 251 250 247 252 244 244
198 175 192 175 193 199 188 148 146 150 212 285 252 168 185 200 165 206 215 214 213 217 218 220 211 226 228 234 236 235 271 289 283 275 282 274 269 265 268 261 255 260 260 274 264
169 180 178 192 174 140 179 151 194 188 180 225 176 235 234 199 197 280 276 265 157 153 234 161 214 162 209 207 187 208 213 214 213 214 213 219 215 218 211 212 215 210 208 210 209
124 175 129 174 180 188 188 193 194 180 200 195 176 185 196 212 213 221 272 287 277 190 272 186 207 267 170 263 259 252 257 256 197 160 201 230 201 192 198 240 241 247 253 194 193
124 175 120 131 182 189 186 178 181 182 189 193 175 191 193 194 203 216 198 220 221 214 225 186 261 278 278 274 247 163 267 268 185 181 191 161 160 161 167 174 170 172 175 176 196
178 175 128 122 152 127 132 131 187 203 194 187 204 192 197 200 179 172 185 193 207 196 187 200 199 211 221 207 227 258 257 243 258 261 257 272 270 270 270 267 268 262 258 229 207
167 189 177 174 163 158 136 195 137 179 177 150 172 195 186 181 181 197 134 138 196 207 200 195 203 187 186 205 222 210 199 219 246 206 218 302 253 239 314 268 274 315 247 323 321
178 160 183 179 169 183 183 177 179 166 131 133 129 128 125 146 179 176 181 191 178 134 181 187 197 203 195 196 191 195 187 185 212 184 205 232 197 196 262 230 235 256 254 254 248
173 165 177 172 175 170 168 164 167 172 179 184 185 146 142 132 144 129 165 182 181 130 192 162 195 157 182 200 198 179 207 205 211 172 219 221 242 185 186 209 229 222 201 205 227
Wind_Speed
57 59 79 94 87 81 88 73 110 97 96 97 101 100 99 95 92 88 89 86 81 67 63 72 63 58 58 51 46 47 47 39 25 41 36 32 45 32 12 20 31 16 32 29 31
36 50 55 101 94 85 77 81 73 94 91 92 89 90 87 96 95 93 90 88 78 73 69 70 62 70 55 52 47 54 58 53 44 36 33 27 23 36 38 30 20 9 12 18 25
26 55 68 77 95 90 79 76 80 67 67 97 86 87 88 94 95 92 93 90 88 78 64 69 71 62 71 63 56 54 50 54 56 54 29 33 44 15 34 35 31 22 29 14 19
33 60 61 62 98 89 70 69 79 59 68 60 97 87 85 82 88 89 90 94 85 85 85 65 64 68 63 57 61 57 55 54 57 52 54 50 34 31 48 30 27 17 36 18 25
69 60 60 62 75 94 84 70 72 72 70 68 80 96 87 82 80 84 86 88 84 78 84 86 77 65 74 64 62 67 63 72 57 65 63 62 53 53 47 44 19 55 44 30 35
70 54 51 43 50 92 77 78 39 69 52 65 62 64 89 82 78 80 82 82 83 85 87 87 85 78 78 75 63 62 63 64 50 58 55 55 51 53 55 65 48 50 50 49 49
66 61 57 53 49 47 58 88 75 66 67 64 55 55 88 83 79 75 76 77 77 76 78 81 82 88 84 81 75 63 61 64 84 67 67 56 54 54 55 54 52 54 55 56 52
52 55 50 45 54 47 26 29 30 19 67 64 57 54 51 72 79 76 74 73 75 77 76 78 78 78 76 87 87 85 78 57 83 81 60 55 84 56 55 56 58 58 60 60 57
54 49 43 42 43 39 33 35 66 65 37 55 52 50 49 57 74 75 75 76 73 72 73 74 75 76 77 74 74 82 79 73 74 81 83 62 78 95 72 77 72 85 52 53 80
56 42 45 42 32 32 26 21 66 38 51 44 45 44 47 48 48 67 73 68 67 68 66 68 73 72 74 73 72 70 76 68 78 79 83 86 90 93 92 71 91 97 44 85 62
48 34 20 35 33 29 28 25 24 41 29 46 47 46 45 45 43 41 49 61 62 55 68 70 74 74 72 72 72 72 75 78 76 78 78 84 86 88 89 90 91 93 43 66 20
31 29 30 34 25 20 23 22 22 30 48 49 38 41 42 41 42 43 49 53 58 61 59 69 71 71 71 72 72 74 75 78 80 81 81 85 65 76 90 91 45 90 91 76 75
49 26 35 35 33 28 43 13 15 12 26 21 49 32 38 38 40 40 44 49 49 46 50 60 63 67 71 72 72 73 75 77 80 80 79 78 76 78 19 80 75 72 73 51 46
25 48 50 43 32 33 35 19 30 29 18 23 32 43 40 40 41 39 42 39 32 33 42 51 62 64 68 68 71 72 78 71 69 69 71 75 77 67 61 63 51 37 28 27 26
62 17 40 36 33 29 31 23 16 22 31 29 26 30 38 37 34 30 31 32 34 37 40 45 49 54 57 60 60 61 58 60 64 66 65 59 56 47 51 20 21 21 29 27 25
51 42 53 49 44 33 18 23 24 15 14 10 6 7 8 5 21 30 27 33 32 36 37 40 44 46 49 50 51 54 58 56 52 48 50 51 42 13 19 17 18 24 24 28 19
71 65 67 58 23 22 32 17 21 5 8 9 13 6 15 16 22 26 30 32 37 37 37 40 39 42 46 46 46 41 42 47 26 10 9 16 18 18 12 11 13 13 12 17 19
72 37 70 60 53 53 52 45 44 36 33 32 27 24 21 17 13 11 9 7 5 9 1 3 6 3 2 4 5 4 4 6 8 9 10 15 16 9 8 12 6 16 16 20 21
57 61 54 34 38 62 53 47 41 40 40 39 36 34 30 30 29 30 30 31 18 15 11 8 6 7 8 12 10 10 6 3 6 10 11 12 10 11 11 11 13 15 17 18 16
63 45 53 45 54 58 46 25 24 27 34 41 36 28 25 25 18 22 22 21 21 22 21 22 19 19 18 18 17 17 14 8 2 4 3 5 8 10 11 11 14 14 18 22 17
37 50 44 51 39 20 43 27 47 40 37 67 33 68 61 27 20 32 31 28 9 8 22 5 15 5 12 11 5 10 11 9 8 7 5 8 6 9 6 8 11 11 12 15 16
12 39 16 41 44 46 45 46 47 33 47 42 23 30 38 44 44 52 31 31 29 9 27 6 11 26 1 22 22 19 18 16 8 12 9 10 10 12 10 16 17 17 18 16 19
7 35 6 10 39 39 39 37 37 36 37 37 20 32 36 33 41 47 31 53 54 41 55 19 44 28 24 24 15 10 20 18 9 12 11 18 18 19 18 18 18 19 20 22 22
30 28 8 4 19 8 6 4 32 38 33 32 33 31 35 36 18 14 22 30 40 30 20 28 25 41 42 24 23 34 30 31 21 18 18 14 16 20 21 20 20 17 18 19 21
17 37 22 23 17 13 8 37 6 27 27 2 19 28 27 24 27 31 10 10 29 34 28 25 30 18 16 35 47 34 17 31 31 25 20 13 21 20 15 21 25 22 18 20 20
27 13 28 18 12 30 29 21 23 17 12 13 12 12 12 12 19 10 20 22 22 16 23 25 25 25 23 23 24 26 21 19 34 17 29 28 22 21 35 25 24 31 29 29 25
21 11 22 14 14 10 9 10 14 14 19 24 25 13 13 19 13 19 12 18 26 20 25 12 22 15 19 24 23 21 28 29 35 19 39 30 45 21 23 29 30 25 26 26 25
Wind_Direction
178 187 198 209 212 208 210 209 216 217 219 221 223 224 225 228 229 231 233 234 235 229 235 241 231 228 232 237 237 229 225 245 243 228 237 246 247 237 218 243 249 248 242 236 241
161 181 173 205 210 211 214 214 211 217 219 220 221 223 225 227 228 229 231 233 231 230 230 233 225 241 232 234 239 237 240 233 234 247 243 252 255 245 242 239 258 258 263 257 282
151 159 163 186 208 210 208 210 211 210 213 222 222 223 225 227 228 230 232 232 234 232 227 229 237 224 243 244 228 233 238 237 241 240 247 252 249 231 257 260 263 262 269 242 255
142 144 161 179 206 210 206 205 217 205 212 208 222 222 224 226 227 230 232 232 231 236 240 227 227 236 227 228 245 228 230 233 240 231 239 240 256 255 234 260 255 261 264 246 269
131 140 148 165 189 207 206 205 205 202 207 208 216 223 224 223 224 229 231 234 232 232 238 241 236 229 240 234 232 241 250 255 234 251 249 245 239 241 258 261 252 249 261 274 274
123 139 149 163 179 205 207 205 195 210 212 207 213 216 224 225 225 228 229 231 236 239 240 239 241 242 245 245 238 235 242 239 248 237 246 245 251 245 248 255 252 261 248 253 251
138 155 165 171 174 186 200 207 207 206 208 210 221 215 224 226 226 227 230 233 233 238 241 243 246 246 245 246 247 243 240 242 259 249 249 247 248 249 250 248 248 261 253 251 260
156 155 171 171 192 197 157 193 169 179 216 216 210 212 217 225 226 228 231 232 235 237 241 245 246 245 251 249 251 253 252 246 257 256 251 252 260 248 252 254 252 249 250 251 254
148 141 178 176 188 174 190 192 203 209 201 206 213 219 214 223 226 231 232 235 236 240 243 245 245 246 248 252 254 255 256 260 258 260 260 252 258 264 259 259 265 267 260 259 270
149 148 130 164 173 131 161 180 198 184 214 210 214 213 215 221 225 233 238 238 239 242 246 246 245 249 250 252 256 258 257 245 260 261 262 264 265 268 269 264 269 270 257 271 258
157 155 142 174 185 185 193 192 169 195 200 215 218 218 221 229 226 235 238 241 246 249 255 247 246 247 251 254 256 260 259 261 262 264 266 267 268 270 271 270 272 273 275 260 276
90 138 163 154 178 119 203 222 197 170 211 219 215 223 227 233 232 234 232 237 241 246 252 249 248 249 252 255 257 258 261 261 261 262 263 267 268 266 272 274 272 286 283 276 279
77 129 72 67 118 125 82 59 101 172 196 182 218 203 219 224 232 231 235 241 252 255 249 247 244 247 250 254 255 258 260 263 266 269 274 280 280 280 239 284 284 288 289 281 290
94 72 97 100 73 89 101 101 129 132 134 170 198 213 220 224 229 233 241 251 253 251 249 249 249 249 254 256 260 264 268 270 272 276 279 280 282 286 287 288 286 287 241 298 300
73 157 90 91 74 64 91 138 93 141 149 149 176 207 215 222 230 241 250 255 252 250 250 250 252 255 257 260 263 268 273 274 276 279 281 283 284 284 289 284 283 288 292 297 298
63 69 73 72 72 76 100 85 124 98 145 146 158 115 231 268 254 249 253 257 262 267 272 273 270 270 271 271 273 274 276 278 279 280 284 284 287 300 296 294 294 286 287 295 291
64 62 65 71 67 71 82 69 80 132 93 145 202 266 243 281 270 277 268 269 268 269 268 266 272 272 272 274 276 275 278 279 280 278 253 278 288 300 303 330 339 338 344 333 319
58 63 69 71 67 70 71 80 84 84 83 83 84 84 83 95 94 98 91 103 105 108 277 356 292 184 249 291 300 275 239 298 293 266 271 289 294 306 337 4 341 -0 4 358 350
48 54 59 62 69 72 76 79 70 70 70 71 83 89 89 91 92 91 91 90 76 72 61 45 47 33 35 50 41 31 19 333 318 258 256 277 309 323 343 3 352 355 351 348 349
53 58 54 61 57 61 67 84 90 90 85 78 76 69 82 81 91 74 76 79 81 83 84 84 89 89 91 86 85 81 58 35 274 6 336 2 342 341 333 334 343 328 328 330 323
51 46 49 49 53 79 60 75 58 61 63 71 80 71 70 79 83 78 77 77 119 131 66 117 60 151 62 61 79 52 50 49 46 40 29 20 -0 10 358 2 5 356 347 351 346
44 53 53 44 42 48 47 56 56 56 61 61 69 69 59 60 62 67 72 71 70 75 67 68 61 59 27 54 50 45 41 36 347 256 330 351 318 302 316 343 335 330 332 318 318
51 51 52 24 49 52 48 41 43 44 49 54 63 53 63 57 61 59 53 66 62 61 63 58 61 62 59 55 46 271 41 32 283 278 305 261 260 261 278 297 289 290 294 292 302
45 47 325 355 47 355 356 17 49 58 53 45 62 45 58 58 54 42 44 45 60 42 43 37 41 49 50 49 47 52 47 40 24 18 19 348 344 345 349 348 347 345 341 325 312
34 16 44 46 41 39 28 39 296 37 38 314 40 60 48 38 32 54 266 259 50 50 42 36 42 26 23 44 49 40 32 35 41 14 19 1 41 23 347 29 26 346 356 340 345
2 1 10 35 38 27 29 39 31 22 270 263 256 250 252 261 29 46 26 40 16 260 15 22 39 46 19 15 5 5 352 345 35 337 8 31 355 351 47 21 22 40 41 37 32
346 347 352 350 350 17 17 7 2 33 36 25 23 288 286 263 279 263 350 20 10 264 43 316 27 301 1 34 27 337 35 35 34 304 36 36 37 326 325 344 18 3 337 338 4